Regional Weather Roundup
Issued by NWS

Home | Current Version | Previous Version | Graphics & Text | Print | Product List | Glossary On
Versions: 1 2 3 4 5 6 7 8 9 10 11 12 13 14 15 16 17 18 19 20 21 22 23 24 25 26 27 28 29 30 31 32 33 34 35 36 37 38 39 40 41 42 43 44 45 46 47 48 49 50
527
ASUS45 KBOU 270807
RWRCO

WEATHER ROUNDUP FOR COLORADO
NATIONAL WEATHER SERVICE DENVER/BOULDER CO
200 AM MDT SAT MAY 27 2017

NOTE: "FAIR" INDICATES FEW OR NO CLOUDS BELOW 12000 FEET WITH NO
SIGNIFICANT WEATHER AND/OR OBSTRUCTIONS TO VISIBILITY.

COZ001>005-013-030-031-270900-
...NORTHWEST COLORADO...

CITY           SKY/WX    TMP DP  RH WIND       PRES   REMARKS
CRAIG          LGT RAIN  43  39  86 S7        30.12R
HAYDEN         CLOUDY    41  36  81 SW3       30.12R
MEEKER         LGT RAIN  45  42  89 E5        30.08S
RABBIT EARS PA NOT AVBL
STEAMBOAT SPGS NOT AVBL
WALDEN         NOT AVBL
$$

COZ006>008-011-270900-
...WEST CENTRAL VALLEYS...

CITY           SKY/WX    TMP DP  RH WIND       PRES   REMARKS
GRAND JUNCTION FAIR      60  38  43 NE10      29.95R
MONTROSE       FAIR      58  19  22 N3        29.97R
EAGLE          FAIR      52  35  52 E8        30.04S
RIFLE          FAIR      55  40  56 NW17G26   30.01R
DELTA          FAIR      63  30  29 W18G29    29.91S
NUCLA          FAIR      59  16  18 SW3       30.01R
$$

COZ017>023-064>068-270900-
...SOUTHWEST COLORADO...

CITY           SKY/WX    TMP DP  RH WIND       PRES   REMARKS
DURANGO        FAIR      46  17  31 N5        30.06R
CORTEZ         FAIR      59  23  25 S13       30.01R
PAGOSA SPRINGS FAIR      42  13  30 CALM      30.11S
TELLURIDE      CLOUDY    53  17  24 SW8       30.16S
WOLF CREEK PAS NOT AVBL
$$

COZ009-010-012-014-032>034-037-058>063-270900-
...CENTRAL COLORADO...

CITY           SKY/WX    TMP DP  RH WIND       PRES   REMARKS
ASPEN          FAIR      45  29  53 S9        30.04F
BUENA VISTA    FAIR      41  20  42 CALM      30.04S
COPPER MTN     NOT AVBL
BERTHOUD PASS  NOT AVBL
COTTONWOOD PAS NOT AVBL
GUNNISON       FAIR      39  23  52 N3        30.06S
KREMMLING      NOT AVBL
LEADVILLE      FAIR      38  19  46 N10       30.14R
SALIDA         FAIR      48  16  28 W7        30.09S
SUNLIGHT       NOT AVBL
WILKERSON PASS NOT AVBL
$$

COZ069>075-270900-
...SAN LUIS VALLEY/SANGRE DE CRISTO MOUNTAINS...

CITY           SKY/WX    TMP DP  RH WIND       PRES   REMARKS
ALAMOSA        FAIR      41  19  41 SW12      30.06F
DEL NORTE      NOT AVBL
LA VETA PASS   NOT AVBL
SAGUACHE       NOT AVBL
$$

COZ035-036-038>040-270900-
...NORTHERN COLORADO FRONT RANGE...

CITY           SKY/WX    TMP DP  RH WIND       PRES   REMARKS
DENVER INTL AP CLOUDY    49  45  86 NW10      30.06S
DMNS CITY PARK   N/A     51  43  74 N7G14     30.06S
AURORA         CLOUDY    49  46  91 N12       30.07S
FRONT RANGE AP NOT AVBL
ERIE MUNI ARPT NOT AVBL
BOULDER MUN AP NOT AVBL
CENTENNIAL     CLOUDY    49  45  86 NW9       30.07S
BROOMFIELD     NOT AVBL
FORT COLLINS   CLOUDY    49  44  83 N3        30.06R
LONGMONT       NOT AVBL
$$

COZ041-046-047-076>085-087-088-270900-
...PIKES PEAK/PALMER DIVIDE AND SOUTHERN FOOTHILLS...

CITY           SKY/WX    TMP DP  RH WIND       PRES   REMARKS
COLO. SPRINGS  FAIR      50  42  74 N20G35    30.03S
A. F. ACADEMY  CLOUDY    48  42  78 N18G25    30.04F
SCHRIEVER AFB  FAIR      48  41  78 N26G36    30.01F
CHEYENNE MTN   FAIR      47  39  75 N28G38    29.95F
ELLICOTT       CLOUDY   N/A N/A N/A N24G33    29.99F
FALCON         CLOUDY    46  41  84 N20G28    30.04F
FORT CARSON    FAIR      51  41  69 N26G35    29.97F
LIMON          CLOUDY    49  48  97 N15       30.00R
MONUMENT HILL  NOT AVBL
CANON CITY     NOT AVBL
WALSENBURG     FAIR      52  45  76 N14G21    30.01R
TRINIDAD       FAIR      51  23  33 NW7       29.94R
$$

COZ042>045-048>051-090-091-270900-
...NORTHEAST COLORADO...

CITY           SKY/WX    TMP DP  RH WIND       PRES   REMARKS
GREELEY ARPT   MOCLDY    50  46  86 NW9       30.05R
AKRON          CLOUDY    50  48  93 N13       29.98R
BURLINGTON     CLOUDY    55  50  83 NE12      29.91R
WRAY           CLOUDY    55  52  88 N8        29.90S
YUMA           NOT AVBL
STERLING       NOT AVBL
HOLYOKE        NOT AVBL
FORT MORGAN    CLOUDY    51  48  90 N9        30.01R
$$

COZ086-089-092>099-270900-
...SOUTHEAST COLORADO...

CITY           SKY/WX    TMP DP  RH WIND       PRES   REMARKS
PUEBLO         FAIR      56  43  61 N31G45    29.90S
LA JUNTA       FAIR      56  48  74 N22       29.85R
LAMAR          FAIR      60  53  77 E15       29.79F
SPRINGFIELD      N/A     49  45  86 CALM      29.82F
$$




USA.gov is the U.S. government's official web portal to all federal, state and local government web resources and services.